Find GFO

NORAD ID: 25157 Int'l Des: 1998-007 Owner: USN Country: US operational
LEOCIRCULARRETROGRADE

現在のビュー

3D地球を読み込み中...

GFOについて

説明を読み込み中...

次回通過

Passes for default location (London). Set your location on the main map for personalized predictions.

高度履歴

Loading altitude history...

軌道要素

1 25157U 98007A 26149.53227706 .00157382 00000-0 78688-3 0 9994
2 25157 108.0060 113.6660 0027633 19.3153 340.9104 15.80694801523556
Epoch: May 29, 2026 • Age: 15 hours

現在のステータス

高度 355.0 km
速度 7.69 km/s
衛星直下点 -68.50°S, 131.78°W
打ち上げ日 Feb 10, 1998
運用期間 28.2 years
タイプ other

技術仕様

分類 Payload
質量 365.00 kg
乾燥質量 300.00 kg
総質量 365.00 kg
長さ 2.70 m
直径 1.00 m
スパン 2.70 m
形状 Cyl + Dish + Pan
製造者 BALL
バスタイプ BCP-2000/Tchstar
フェーズステータス In Orbit
所有者/国 USN/US

Most Searched